Time,TemperatureF,DewpointF,PressureIn,WindDirection,WindDirectionDegrees,WindSpeedMPH,WindSpeedGustMPH,Humidity,HourlyPrecipIn,Conditions,Clouds,dailyrainin,SoftwareType,DateUTC
2013-01-31 00:09:00,49.0,34.5,29.70,West,270,6.0,9.0,57,0.01,,,0.00,VWS V14.00,2013-01-31 05:09:00,
2013-01-31 00:19:00,49.0,34.5,29.68,West,270,2.0,10.0,57,0.01,,,0.00,VWS V14.00,2013-01-31 05:19:00,
2013-01-31 00:29:00,49.0,34.9,29.68,West,270,4.0,11.0,58,0.01,,,0.00,VWS V14.00,2013-01-31 05:29:00,
2013-01-31 00:39:00,50.0,36.2,29.66,West,270,3.0,8.0,59,0.01,,,0.00,VWS V14.00,2013-01-31 05:39:00,
2013-01-31 00:49:00,51.0,37.2,29.65,WSW,247,0.0,7.0,59,0.01,,,0.00,VWS V14.00,2013-01-31 05:49:00,
2013-01-31 00:59:00,51.0,37.2,29.63,West,270,0.0,8.0,59,0.01,,,0.00,VWS V14.00,2013-01-31 05:59:00,
2013-01-31 01:09:00,51.0,37.2,29.62,WSW,247,0.0,11.0,59,0.00,,,0.00,VWS V14.00,2013-01-31 06:09:00,
2013-01-31 01:19:00,50.0,36.2,29.61,WSW,247,0.0,8.0,59,0.00,,,0.00,VWS V14.00,2013-01-31 06:19:00,
2013-01-31 01:29:00,50.0,35.8,29.61,West,270,1.0,8.0,58,0.00,,,0.00,VWS V14.00,2013-01-31 06:29:00,
2013-01-31 01:39:00,51.0,36.3,29.60,WSW,247,0.0,10.0,57,0.00,,,0.00,VWS V14.00,2013-01-31 06:39:00,
2013-01-31 01:49:00,51.0,37.6,29.57,WSW,247,1.0,12.0,60,0.00,,,0.00,VWS V14.00,2013-01-31 06:49:00,
2013-01-31 01:59:00,51.0,36.8,29.59,West,270,5.0,11.0,58,0.00,,,0.00,VWS V14.00,2013-01-31 06:59:00,
2013-01-31 02:09:00,51.0,37.2,29.57,West,270,1.0,10.0,59,0.00,,,0.00,VWS V14.00,2013-01-31 07:09:00,
2013-01-31 02:19:00,52.0,38.6,29.56,WSW,247,0.0,11.0,60,0.00,,,0.00,VWS V14.00,2013-01-31 07:19:00,
2013-01-31 02:29:00,53.0,39.9,29.53,West,270,0.0,15.0,61,0.00,,,0.04,VWS V14.00,2013-01-31 07:29:00,
2013-01-31 02:39:00,52.0,39.8,29.53,West,270,0.0,11.0,63,0.03,,,0.04,VWS V14.00,2013-01-31 07:39:00,
2013-01-31 02:49:00,52.0,39.0,29.51,West,270,4.0,10.0,61,0.03,,,0.04,VWS V14.00,2013-01-31 07:49:00,
2013-01-31 02:59:00,52.0,39.4,29.50,WSW,247,0.0,13.0,62,0.04,,,0.06,VWS V14.00,2013-01-31 07:59:00,
2013-01-31 03:09:00,52.0,39.0,29.49,West,270,0.0,14.0,61,0.04,,,0.06,VWS V14.00,2013-01-31 08:09:00,
2013-01-31 03:19:00,52.0,39.4,29.46,South,180,14.0,22.0,62,0.03,,,0.06,VWS V14.00,2013-01-31 08:19:00,
2013-01-31 03:29:00,52.0,39.0,29.43,WSW,247,0.0,27.0,61,0.03,,,0.06,VWS V14.00,2013-01-31 08:29:00,
2013-01-31 03:39:00,52.0,38.6,29.45,WSW,247,2.0,14.0,60,0.03,,,0.07,VWS V14.00,2013-01-31 08:39:00,
2013-01-31 03:49:00,52.0,37.2,29.43,WSW,247,4.0,10.0,57,0.04,,,0.08,VWS V14.00,2013-01-31 08:49:00,
2013-01-31 03:59:00,52.0,36.8,29.39,WSW,247,3.0,10.0,56,0.03,,,0.10,VWS V14.00,2013-01-31 08:59:00,
2013-01-31 04:09:00,51.0,35.4,29.40,WSW,247,0.0,12.0,55,0.04,,-RA,0.10,VWS V14.00,2013-01-31 09:09:00,
2013-01-31 04:19:00,52.0,36.3,29.39,West,270,3.0,9.0,55,0.04,,-RA,0.10,VWS V14.00,2013-01-31 09:19:00,
2013-01-31 04:29:00,52.0,35.4,29.36,WSW,247,11.0,12.0,53,0.03,,-RA,0.12,VWS V14.00,2013-01-31 09:29:00,
2013-01-31 04:39:00,51.0,34.0,29.37,WSW,247,0.0,12.0,52,0.05,,-RA,0.13,VWS V14.00,2013-01-31 09:39:00,
2013-01-31 04:49:00,51.0,34.0,29.36,WSW,247,3.0,12.0,52,0.06,,-RA,0.16,VWS V14.00,2013-01-31 09:49:00,
2013-01-31 04:59:00,51.0,33.5,29.34,WSW,247,0.0,12.0,51,0.10,,-RA,0.23,VWS V14.00,2013-01-31 09:59:00,
2013-01-31 05:09:00,51.0,34.0,29.32,WSW,247,1.0,13.0,52,0.17,,-RA,0.32,VWS V14.00,2013-01-31 10:09:00,
2013-01-31 05:19:00,51.0,34.5,29.29,WSW,247,1.0,10.0,53,0.27,,-RA,0.46,VWS V14.00,2013-01-31 10:19:00,
2013-01-31 05:29:00,51.0,34.5,29.29,WSW,247,0.0,17.0,53,0.43,,-RA,0.67,VWS V14.00,2013-01-31 10:29:00,
2013-01-31 05:39:00,51.0,34.5,29.33,SSW,202,19.0,19.0,53,0.44,,RA,0.75,VWS V14.00,2013-01-31 10:39:00,
2013-01-31 05:49:00,52.0,34.9,29.33,West,270,20.0,34.0,52,0.66,, +RA,1.05,VWS V14.00,2013-01-31 10:49:00,
2013-01-31 05:59:00,50.0,33.1,29.35,West,270,16.0,30.0,52,0.68,, +RA,1.19,VWS V14.00,2013-01-31 10:59:00,
2013-01-31 06:09:00,49.0,32.2,29.33,West,270,18.0,25.0,52,0.60,, +RA,1.21,VWS V14.00,2013-01-31 11:09:00,
2013-01-31 06:19:00,48.0,32.6,29.34,West,270,11.0,26.0,55,0.52,, +RA,1.23,VWS V14.00,2013-01-31 11:19:00,
2013-01-31 06:29:00,47.0,31.7,29.33,SW,225,8.0,15.0,55,0.44,,RA,1.23,VWS V14.00,2013-01-31 11:29:00,
2013-01-31 06:39:00,46.0,30.8,29.35,SW,225,8.0,15.0,55,0.38,,-RA,1.23,VWS V14.00,2013-01-31 11:39:00,
2013-01-31 06:49:00,47.0,30.8,29.32,SW,225,12.0,17.0,53,0.34,,-RA,1.25,VWS V14.00,2013-01-31 11:49:00,
2013-01-31 06:59:00,46.0,30.8,29.31,SW,225,9.0,18.0,55,0.28,,-RA,1.25,VWS V14.00,2013-01-31 11:59:00,
2013-01-31 07:09:00,46.0,31.2,29.31,SSW,202,10.0,15.0,56,0.25,,-RA,1.27,VWS V14.00,2013-01-31 12:09:00,
2013-01-31 07:19:00,46.0,31.6,29.28,SW,225,13.0,18.0,57,0.22,,-RA,1.27,VWS V14.00,2013-01-31 12:19:00,
2013-01-31 07:29:00,46.0,32.1,29.30,SW,225,9.0,14.0,58,0.19,,-RA,1.27,VWS V14.00,2013-01-31 12:29:00,
2013-01-31 07:39:00,46.0,31.6,29.30,West,270,10.0,16.0,57,0.17,,-RA,1.28,VWS V14.00,2013-01-31 12:39:00,
2013-01-31 07:49:00,46.0,31.6,29.31,West,270,8.0,15.0,57,0.14,,-RA,1.28,VWS V14.00,2013-01-31 12:49:00,
2013-01-31 07:59:00,46.0,30.8,29.28,West,270,10.0,14.0,55,0.12,,-RA,1.28,VWS V14.00,2013-01-31 12:59:00,
2013-01-31 08:09:00,47.0,32.1,29.28,West,270,15.0,20.0,56,0.10,,,1.28,VWS V14.00,2013-01-31 13:09:00,
2013-01-31 08:19:00,47.0,33.0,29.28,West,270,11.0,23.0,58,0.09,,,1.28,VWS V14.00,2013-01-31 13:19:00,
2013-01-31 08:29:00,47.0,37.0,29.25,West,270,16.0,32.0,68,0.23,,,1.47,VWS V14.00,2013-01-31 13:29:00,
2013-01-31 08:39:00,47.0,42.1,29.27,West,270,24.0,30.0,83,0.31,,,1.61,VWS V14.00,2013-01-31 13:39:00,
2013-01-31 08:49:00,45.0,40.5,29.31,West,270,10.0,32.0,84,0.29,,,1.61,VWS V14.00,2013-01-31 13:49:00,
2013-01-31 08:59:00,45.0,40.8,29.33,West,270,17.0,22.0,85,0.25,,-RA,1.61,VWS V14.00,2013-01-31 13:59:00,
2013-01-31 09:09:00,45.0,40.8,29.35,West,270,9.0,19.0,85,0.00,,OVC090,1.61,VWS V14.00,2013-01-31 14:09:00,
2013-01-31 09:19:00,44.0,40.1,29.35,SW,225,15.0,18.0,86,0.00,,OVC090,1.61,VWS V14.00,2013-01-31 14:19:00,
2013-01-31 09:29:00,44.0,39.5,29.37,West,270,18.0,23.0,84,0.00,,OVC090,1.62,VWS V14.00,2013-01-31 14:29:00,
2013-01-31 09:39:00,44.0,39.2,29.36,West,270,20.0,29.0,83,0.00,,OVC090,1.63,VWS V14.00,2013-01-31 14:39:00,
2013-01-31 09:49:00,44.0,39.5,29.37,West,270,7.0,23.0,84,0.00,,OVC090,1.68,VWS V14.00,2013-01-31 14:49:00,
2013-01-31 09:59:00,44.0,38.9,29.40,West,270,16.0,23.0,82,0.00,,OVC090,1.81,VWS V14.00,2013-01-31 14:59:00,
2013-01-31 10:09:00,43.0,37.9,29.41,West,270,17.0,29.0,82,0.06,,OVC090,1.86,VWS V14.00,2013-01-31 15:09:00,
2013-01-31 10:19:00,43.0,37.9,29.42,West,270,18.0,25.0,82,0.10,,OVC090,1.91,VWS V14.00,2013-01-31 15:19:00,
2013-01-31 10:29:00,43.0,38.5,29.41,SW,225,11.0,30.0,84,0.17,,OVC090,2.00,VWS V14.00,2013-01-31 15:29:00,
2013-01-31 10:39:00,44.0,38.9,29.43,West,270,12.0,25.0,82,0.14,,OVC090,2.00,VWS V14.00,2013-01-31 15:39:00,
2013-01-31 10:49:00,45.0,37.9,29.44,NW,315,22.0,26.0,76,0.20,,OVC090,2.09,VWS V14.00,2013-01-31 15:49:00,
2013-01-31 10:59:00,46.0,33.3,29.44,WSW,247,12.0,30.0,61,0.17,,OVC090,2.09,VWS V14.00,2013-01-31 15:59:00,
2013-01-31 11:09:00,47.0,33.0,29.46,WSW,247,11.0,29.0,58,0.00,,BKN045,2.12,VWS V14.00,2013-01-31 16:09:00,
2013-01-31 11:19:00,46.0,31.6,29.47,West,270,8.0,29.0,57,0.00,,BKN045,2.15,VWS V14.00,2013-01-31 16:19:00,
2013-01-31 11:29:00,46.0,30.3,29.46,WSW,247,10.0,27.0,54,0.00,,BKN045,2.18,VWS V14.00,2013-01-31 16:29:00,
2013-01-31 11:39:00,46.0,31.2,29.47,NW,315,10.0,23.0,56,0.00,,BKN045,2.19,VWS V14.00,2013-01-31 16:39:00,
2013-01-31 11:49:00,45.0,31.1,29.48,NW,315,9.0,26.0,58,0.00,,BKN045,2.21,VWS V14.00,2013-01-31 16:49:00,
2013-01-31 11:59:00,46.0,31.6,29.48,West,270,9.0,19.0,57,0.00,,BKN045,2.22,VWS V14.00,2013-01-31 16:59:00,
2013-01-31 12:09:00,46.0,30.8,29.48,WSW,247,9.0,22.0,55,0.00,,CLR,2.22,VWS V14.00,2013-01-31 17:09:00,
2013-01-31 12:19:00,46.0,30.8,29.50,West,270,12.0,25.0,55,0.00,,CLR,2.22,VWS V14.00,2013-01-31 17:19:00,
2013-01-31 12:29:00,45.0,30.3,29.50,West,270,17.0,29.0,56,0.00,,CLR,2.25,VWS V14.00,2013-01-31 17:29:00,
2013-01-31 12:39:00,45.0,27.5,29.50,WSW,247,13.0,29.0,50,0.00,,CLR,2.29,VWS V14.00,2013-01-31 17:39:00,
2013-01-31 12:49:00,44.0,27.5,29.52,West,270,16.0,23.0,52,0.00,,CLR,2.29,VWS V14.00,2013-01-31 17:49:00,
2013-01-31 12:59:00,45.0,28.0,29.51,West,270,17.0,24.0,51,0.04,,CLR,2.33,VWS V14.00,2013-01-31 17:59:00,
2013-01-31 13:09:00,45.0,25.5,29.53,West,270,19.0,25.0,46,0.03,,BKN055,2.33,VWS V14.00,2013-01-31 18:09:00,
2013-01-31 13:19:00,44.0,27.0,29.52,West,270,16.0,23.0,51,0.06,,BKN055,2.37,VWS V14.00,2013-01-31 18:19:00,
2013-01-31 13:29:00,44.0,28.4,29.55,West,270,17.0,26.0,54,0.10,,BKN055,2.42,VWS V14.00,2013-01-31 18:29:00,
2013-01-31 13:39:00,43.0,28.8,29.55,WSW,247,20.0,24.0,57,0.14,,BKN055,2.48,VWS V14.00,2013-01-31 18:39:00,
2013-01-31 13:49:00,42.0,27.5,29.55,West,270,14.0,23.0,56,0.18,,BKN055,2.55,VWS V14.00,2013-01-31 18:49:00,
2013-01-31 13:59:00,42.0,27.5,29.58,West,270,14.0,25.0,56,0.16,,BKN055,2.56,VWS V14.00,2013-01-31 18:59:00,
2013-01-31 14:09:00,42.0,28.7,29.57,West,270,9.0,22.0,59,0.14,,FEW065,2.56,VWS V14.00,2013-01-31 19:09:00,
2013-01-31 14:19:00,41.0,27.4,29.59,WSW,247,10.0,22.0,58,0.12,,FEW065,2.57,VWS V14.00,2013-01-31 19:19:00,
2013-01-31 14:29:00,41.0,27.0,29.59,WNW,292,10.0,20.0,57,0.12,,FEW065,2.59,VWS V14.00,2013-01-31 19:29:00,
2013-01-31 14:39:00,41.0,24.3,29.60,WNW,292,12.0,19.0,51,0.11,,FEW065,2.59,VWS V14.00,2013-01-31 19:39:00,
2013-01-31 14:49:00,41.0,21.8,29.60,NW,315,20.0,21.0,46,0.09,,FEW065,2.59,VWS V14.00,2013-01-31 19:49:00,
2013-01-31 14:59:00,43.0,22.6,29.60,WNW,292,13.0,22.0,44,0.08,,FEW065,2.60,VWS V14.00,2013-01-31 19:59:00,
2013-01-31 15:09:00,43.0,21.5,29.61,WSW,247,5.0,24.0,42,0.07,,SCT060,2.60,VWS V14.00,2013-01-31 20:09:00,
2013-01-31 15:19:00,40.0,28.4,29.63,West,270,18.0,25.0,63,0.13,,SCT060,2.67,VWS V14.00,2013-01-31 20:19:00,
2013-01-31 15:29:00,39.0,31.1,29.65,West,270,18.0,20.0,73,0.12,,SCT060,2.68,VWS V14.00,2013-01-31 20:29:00,
2013-01-31 15:39:00,40.0,29.6,29.64,West,270,16.0,20.0,66,0.12,,SCT060,2.70,VWS V14.00,2013-01-31 20:39:00,
2013-01-31 15:49:00,40.0,28.4,29.64,West,270,14.0,24.0,63,0.11,,SCT060,2.71,VWS V14.00,2013-01-31 20:49:00,
2013-01-31 15:59:00,39.0,27.9,29.63,West,270,28.0,28.0,64,0.09,,SCT060,2.71,VWS V14.00,2013-01-31 20:59:00,
2013-01-31 16:09:00,39.0,28.6,29.65,West,270,15.0,28.0,66,0.12,,BKN070,2.76,VWS V14.00,2013-01-31 21:09:00,
2013-01-31 16:19:00,39.0,29.0,29.66,West,270,13.0,23.0,67,0.14,,BKN070,2.80,VWS V14.00,2013-01-31 21:19:00,
2013-01-31 16:29:00,39.0,28.2,29.64,West,270,13.0,27.0,65,0.15,,BKN070,2.83,VWS V14.00,2013-01-31 21:29:00,
2013-01-31 16:39:00,38.0,29.5,29.66,West,270,13.0,21.0,71,0.16,,BKN070,2.88,VWS V14.00,2013-01-31 21:39:00,
2013-01-31 16:49:00,38.0,29.1,29.67,SW,225,13.0,24.0,70,0.23,,BKN070,2.97,VWS V14.00,2013-01-31 21:49:00,
2013-01-31 16:59:00,38.0,26.5,29.68,WSW,247,10.0,24.0,63,0.21,,BKN070,2.99,VWS V14.00,2013-01-31 21:59:00,
2013-01-31 17:09:00,38.0,26.9,29.68,West,270,18.0,27.0,64,0.22,,SCT070,3.03,VWS V14.00,2013-01-31 22:09:00,
2013-01-31 17:19:00,37.0,26.3,29.70,West,270,10.0,21.0,65,0.18,,SCT070,3.03,VWS V14.00,2013-01-31 22:19:00,
2013-01-31 17:29:00,37.0,24.0,29.69,West,270,13.0,21.0,59,0.22,,SCT070,3.10,VWS V14.00,2013-01-31 22:29:00,
2013-01-31 17:39:00,37.0,23.2,29.71,West,270,11.0,22.0,57,0.21,,SCT070,3.12,VWS V14.00,2013-01-31 22:39:00,
2013-01-31 17:49:00,37.0,23.2,29.73,West,270,10.0,19.0,57,0.18,,SCT070,3.13,VWS V14.00,2013-01-31 22:49:00,
2013-01-31 17:59:00,37.0,21.0,29.73,West,270,18.0,25.0,52,0.17,,SCT070,3.15,VWS V14.00,2013-01-31 22:59:00,
2013-01-31 18:09:00,37.0,23.6,29.75,West,270,10.0,24.0,58,0.18,,BKN070,3.19,VWS V14.00,2013-01-31 23:09:00,
2013-01-31 18:19:00,36.0,21.8,29.76,West,270,26.0,26.0,56,0.25,,BKN070,3.30,VWS V14.00,2013-01-31 23:19:00,
2013-01-31 18:29:00,36.0,21.0,29.76,WNW,292,11.0,26.0,54,0.25,,BKN070,3.33,VWS V14.00,2013-01-31 23:29:00,
2013-01-31 18:39:00,36.0,19.6,29.77,NW,315,13.0,25.0,51,0.22,,BKN070,3.34,VWS V14.00,2013-01-31 23:39:00,
2013-01-31 18:49:00,35.0,20.0,29.79,WSW,247,14.0,26.0,54,0.19,,BKN070,3.35,VWS V14.00,2013-01-31 23:49:00,
2013-01-31 18:59:00,35.0,18.7,29.80,WSW,247,10.0,19.0,51,0.17,,BKN070,3.35,VWS V14.00,2013-01-31 23:59:00,
2013-01-31 19:09:00,34.0,17.8,29.81,NW,315,9.0,20.0,51,0.14,,OVC070,3.36,VWS V14.00,2013-02-01 00:09:00,
2013-01-31 19:19:00,34.0,17.8,29.82,West,270,13.0,22.0,51,0.13,,OVC070,3.36,VWS V14.00,2013-02-01 00:19:00,
2013-01-31 19:29:00,34.0,18.7,29.83,West,270,8.0,22.0,53,0.14,,OVC070,3.41,VWS V14.00,2013-02-01 00:29:00,
2013-01-31 19:39:00,33.0,19.0,29.83,WSW,247,12.0,23.0,56,0.13,,OVC070,3.41,VWS V14.00,2013-02-01 00:39:00,
2013-01-31 19:49:00,33.0,18.2,29.83,WSW,247,8.0,26.0,54,0.13,,OVC070,3.43,VWS V14.00,2013-02-01 00:49:00,
2013-01-31 19:59:00,33.0,17.8,29.84,West,270,8.0,24.0,53,0.11,,OVC070,3.43,VWS V14.00,2013-02-01 00:59:00,
2013-01-31 20:09:00,33.0,18.2,29.84,WSW,247,10.0,21.0,54,0.09,,BKN075,3.43,VWS V14.00,2013-02-01 01:09:00,
2013-01-31 20:19:00,32.0,18.5,29.85,WNW,292,9.0,27.0,57,0.08,,BKN075,3.43,VWS V14.00,2013-02-01 01:19:00,
2013-01-31 20:29:00,32.0,18.5,29.85,West,270,13.0,22.0,57,0.08,,BKN075,3.44,VWS V14.00,2013-02-01 01:29:00,
2013-01-31 20:39:00,32.0,18.5,29.86,West,270,15.0,22.0,57,0.07,,BKN075,3.44,VWS V14.00,2013-02-01 01:39:00,
2013-01-31 20:49:00,32.0,18.5,29.86,WSW,247,12.0,23.0,57,0.09,,BKN075,3.48,VWS V14.00,2013-02-01 01:49:00,
2013-01-31 20:59:00,31.0,17.6,29.88,West,270,10.0,23.0,57,0.10,,BKN075,3.50,VWS V14.00,2013-02-01 01:59:00,
2013-01-31 21:09:00,31.0,15.4,29.88,WNW,292,10.0,23.0,52,0.10,,OVC060,3.52,VWS V14.00,2013-02-01 02:09:00,
2013-01-31 21:19:00,30.0,15.0,29.89,West,270,7.0,22.0,53,0.08,,OVC060,3.52,VWS V14.00,2013-02-01 02:19:00,
2013-01-31 21:29:00,30.0,14.5,29.88,West,270,12.0,22.0,52,0.07,,OVC060,3.52,VWS V14.00,2013-02-01 02:29:00,
2013-01-31 21:39:00,30.0,13.2,29.90,WNW,292,14.0,20.0,49,0.06,,OVC060,3.52,VWS V14.00,2013-02-01 02:39:00,
2013-01-31 21:49:00,30.0,15.0,29.90,WSW,247,12.0,18.0,53,0.05,,OVC060,3.52,VWS V14.00,2013-02-01 02:49:00,
2013-01-31 21:59:00,29.0,14.4,29.90,NW,315,8.0,22.0,54,0.04,,OVC060,3.52,VWS V14.00,2013-02-01 02:59:00,
2013-01-31 22:09:00,29.0,14.9,29.90,West,270,12.0,23.0,55,0.05,,CLR,3.53,VWS V14.00,2013-02-01 03:09:00,
2013-01-31 22:19:00,29.0,15.7,29.92,West,270,12.0,18.0,57,0.05,,CLR,3.54,VWS V14.00,2013-02-01 03:19:00,
2013-01-31 22:29:00,29.0,16.9,29.92,West,270,9.0,19.0,60,0.04,,CLR,3.54,VWS V14.00,2013-02-01 03:29:00,
2013-01-31 22:39:00,29.0,16.5,29.91,WNW,292,14.0,19.0,59,0.05,,CLR,3.56,VWS V14.00,2013-02-01 03:39:00,
2013-01-31 22:49:00,29.0,18.7,29.91,West,270,6.0,19.0,65,0.05,,CLR,3.57,VWS V14.00,2013-02-01 03:49:00,
2013-01-31 22:59:00,28.0,17.4,29.92,NW,315,8.0,20.0,64,0.05,,CLR,3.59,VWS V14.00,2013-02-01 03:59:00,
2013-01-31 23:09:00,28.0,17.4,29.93,West,270,8.0,19.0,64,0.08,,CLR,3.62,VWS V14.00,2013-02-01 04:09:00,
2013-01-31 23:19:00,28.0,17.8,29.92,West,270,20.0,20.0,65,0.07,,CLR,3.64,VWS V14.00,2013-02-01 04:19:00,
2013-01-31 23:29:00,28.0,18.8,29.92,WSW,247,12.0,20.0,68,0.08,,CLR,3.65,VWS V14.00,2013-02-01 04:29:00,
2013-01-31 23:39:00,28.0,18.5,29.93,West,270,9.0,19.0,67,0.07,,CLR,3.65,VWS V14.00,2013-02-01 04:39:00,
2013-01-31 23:49:00,28.0,19.8,29.93,WNW,292,10.0,18.0,71,0.06,,CLR,3.65,VWS V14.00,2013-02-01 04:49:00,